Погода Закаталы

Погода Закаталы : погода сейчас, прогноз погоды и архив. Всё, что Вы хотите узнать о погоде Закаталы!

Поиск расширенной информации на нашем сайте:

Другие новости

Новости СМИ2

Главная страница сайта

Новости сайта

02.10.2013

Напоминаем, что на нашем новом сайте вы можете получить высокодетализированные прогнозы погоды по пунктам России, СНГ и мира (включающие важные для авиации метеовеличины, такие как направление и скорость ветра, видимость, явления погоды, количество и форма облачности, нижняя и верхняя граница облачности), а также ознакомиться с разнообразными материалами по авиационной метеорологии и подборкой полезных ссылок на эту тему.

Сайт Метеоцентр.Азия посвящён разработке технологий оптимизации авиаметеорологического обслуживания, включая проектирование и перспективное создание нескольких автоматизированных авиаметеорологических систем:
- система выпуска высокодетальных прогностических карт явлений погоды для нижнего воздушного пространства по России и ближнему зарубежью;
- система верификации прогнозов TAF (выпускаемых синоптиками официальных АМСГ РФ и ближнего зарубежья) и AUTOTAF (выпускаемых сайтом Метеоцентр.Азия) - выявление ошибок, онлайн-сопоставление с фактической погодой METAR, автоматическое внесение коррективов в прогнозы при резком отклонении фактической погоды от прогноза, подсчёт оправдываемости прогнозов по элементам и в целом;
- система обработки, анализа и отображения авиаметеорологической информации для применения провайдерами метеорологической информации.


Погода Закаталы - сегодня

Время (UTC), дата Ветер
(°,м/с) 
Видим.   Явления Облачность Т
(°С)
Тd
(°С)
f(%) Тe
(°С)
Pmin
(гПа)
dP
(гПа)
Po
(мм)
O2
(г/м3)
Тmin Tmax R s Состояние
почвы
00 26.05.17 090 (В) 20000 м    3/0 средняя 
[Ac und]
+14.6 +11.2 80 +19  1021.6  723  274           
06 26.05.17 180 (Ю) 4000 м    10/10 600 м 
[Sc]
+16.8 +13.8 82 +26  1021  723  272           
09 26.05.17 200 (Ю) 10 км    9/9 1000 м средняя 
[Sc|Ac und]
+19.3 +13.1 67 +26  1019.9  -0.7  723  269           
12 26.05.17 180 (Ю) 20000 м    4/0 средняя 
[Ac und]
+21.6 +13.8 61 +29  1017.2  -2.1  721  266           
15 26.05.17 200 (Ю) 20000 м    8/8 1000 м средняя 
[Sc|Ac und]
+20.5 +14.5 68 +29  1015.8  -1.4  720  267           
18 26.05.17 180 (Ю) 4000 м    10/10 600 м 
[Sc]
+19.2 +15.7 80 +31  1017.9  1.6  721  268    +23.8       
21 26.05.17 180 (Ю) 2000 м  слаб. дождь  10/10 600 м 
[Cu med, cong]
+17 +14.1 83 +26  1017.4  -0.4  721  271           
00 27.05.17 020 (С) 4000 м    9/9 1000 м средняя 
[Sc|Ac und]
+16.1 +14 87 +25  1017.7  -0.4  721  271           
03 27.05.17 360 (С) 20000 м    1/0 средняя 
[Ac und]
+15.8 +12.2 79 +22  1016.7  -1  720  272         
06 27.05.17 180 (Ю) 20000 м    8/8 1000 м средняя 
[Sc|Ac und]
+18.6 +15.1 80 +30  1016.3  0.2  720  268           
09 27.05.17 210 (ЮЗ) 10 км    9/9 1000 м 
[Sc]
+21.5 +15.9 70 +33  1015.1  -0.7  720  265           
12 27.05.17 070 (В) 10 км    8/8 1000 м средняя 
[Sc|Ac und]
+22.8 +16 65 +35  1012.1  -2.5  718  263           
21 27.05.17 050 (СВ) 4000 м    8/8 1000 м средняя 
[Sc|Ac und]
+16.2 +13.5 84 +24  1014  718  270           
00 28.05.17 250 (З) 20000 м    ясно 
+14.6 +12.2 86 +20  1014.4  718  272           
09 28.05.17 210 (ЮЗ) 20000 м    3/0 средняя 
[Ac und]
+24.1 +11.5 45 +28  1014  0.1  719  264           
12 28.05.17 160 (Ю) 20000 м    4/0 средняя 
[Ac und]
+26.3 +11.9 41 +31  1012.4  -1.1  718  262           
15 28.05.17 070 (В) 20000 м  слаб. дождь{гроза, ливн. осадки}  10/10 600 м 
[Cu med, cong]
+19.2 +15.7 80 +31  1016.1  2.3  720  268      0.9     
18 28.05.17 020 (С) 4000 м    9/9 600 м средняя 
[Sc|Ac und]
+17.9 +11.8 67 +23  1018.1  1.6  721  270    +26.9       
21 28.05.17 360 (С) 4000 м    9/6 1000 м средняя 
[Sc|Ac und]
+17 +17.8 100 +33  1019.2  0.8  717  268           
00 29.05.17 020 (С) 4000 м    4/0 средняя 
[Ac und]
+15.2 +10.9 75 +19  1011.4  1.5  723  274           
03 29.05.17 050 (СВ) 20000 м    ясно 
+15.8 +11 73 +20  1021.3  723  273           
09 29.05.17 250 (З) 20000 м    3/3 1500 м 
[Cu med, cong]
+23.7 +13.8 54 +31  1021.9  0.1  725  266           
12 29.05.17 250 (З) 20000 м    3/3 1500 м 
[Cu med, cong]
+26 +13.6 46 +33  1020.7  -0.7  724  264           
21 29.05.17 020 (С) 20000 м    ясно 
+17.9 +12.7 72 +25  1023.5  -0.2  725  272           
00 30.05.17 050 (СВ) 4000 м    8/8 600 м средняя 
[Sc|Ac und]
+16.7 +12.5 76 +23  1023.5  -0.3  725  273           
Время (UTC), дата Ветер
(°,м/с) 
Видим.   Явления Облачность Т
(°С)
Тd
(°С)
f(%) Тe
(°С)
Pmin
(гПа)
dP
(гПа)
Po
(мм)
O2
(г/м3)
Тmin Tmax R s Состояние
почвы

Для получения пояснительной информации подведите курсор к названию столбца.

ПОГОДА Закаталы - архив

Всё, что Вы хотите узнать о погоде Закаталы - удобно и подробно!

Выберите нужную дату (начиная с 1 января 2015* года) и нажмите кнопку "Найти".
Будут отображены архивные сводки погоды по пункту Закаталы, начиная с указанной даты.


Отображать данные в формате CSV (для использования в таблицах Excel)


Внимание! Наш архив погоды предназначен исключительно для личного некоммерческого использования в познавательных целях. Если Вам необходимы официальные справки о состоянии погоды (для производственных, юридических, коммерческих и т.п. целей), обращайтесь в органы Росгидромета.

*Примечание: данная дата относится к архиву по метеостанциям СССР (Россия, СНГ, Балтия).
Архив по метеостанциям Зарубежной Европы и Азии (кроме Китая) хранится 10 дней, по другим регионам земного шара (Китай, Африка, Америка, Австралия, Океания) - 1 день.

Закаталы - район местоположения метеостанции


Название, широта, долгота, высота метеостанции:
Закаталы 41.6°ш. 46.6°д. 490 м над ур. моря [Азербайджан]

Дополнительная информация

В oтличие oт бoльшинства пoгoдных сайтoв мы публикуем пoдрoбную метеoинфoрмацию в детальнoм прoфессиoнальнoм фoрмате.

Характеристики температуры и влажнoсти вoздуха измеряются на высoте 2 м в тени вдали oт зданий и деревьев.
Скoрoсть ветра измеряется на высoте 10 м (на урoвне рoста челoвека скoрoсть ветра ниже в 1.5-2 раза). Если метеoстанция нахoдится в гoрoде или в лесу, тo скoрoсть ветра занижена на 2-4 м/с пo сравнению с oткрытым местoм. Скoрoсть ветра над акватoриями крупных рек и oзёр, а также на вершинах хoлмoв на 2-5 м/с выше, чем в oбычных услoвиях.
Атмoсфернoе давление в разных тoчках местнoсти мoжет значительнo oтличаться oт давления на метеoстанции, в зависимoсти oт услoвий рельефа (при пoдъёме на 10 м давление пoнижается примернo на 1 мм рт.ст.).